Total_Precipitation_Accumulation
0.00 0.00 0.04 0.02 0.00 0.01 0.02 0.00 0.00 0.00 0.01 0.01 0.01 0.01 0.00 0.00 0.00 0.00 0.00 0.01 0.01 0.00 0.00 0.00 0.01 0.01 0.01 0.01 0.00 0.00 0.00 0.00 0.00 0.00 0.00 0.00 0.00 0.01 0.01 0.01 0.05 0.08 0.02
0.00 0.00 0.02 0.01 0.00 0.01 0.02 0.01 0.00 0.00 0.00 0.00 0.00 0.00 0.00 0.00 0.00 0.00 0.00 0.01 0.00 0.00 0.00 0.00 0.00 0.00 0.00 0.00 0.00 0.00 0.00 0.00 0.00 0.00 0.00 0.00 0.00 0.00 0.00 0.00 0.04 0.05 0.01
0.00 0.00 0.01 0.00 0.01 0.02 0.01 0.01 0.00 0.00 0.00 0.00 0.01 0.01 0.01 0.01 0.00 0.00 0.00 0.00 0.00 0.00 0.00 0.00 0.00 0.00 0.00 0.00 0.00 0.00 0.00 0.00 0.00 0.00 0.00 0.01 0.00 0.00 0.00 0.00 0.00 0.00 0.00
0.00 0.00 0.00 0.00 0.01 0.01 0.01 0.01 0.01 0.01 0.00 0.01 0.05 0.05 0.04 0.01 0.01 0.00 0.00 0.00 0.00 0.00 0.00 0.00 0.00 0.00 0.00 0.00 0.01 0.00 0.00 0.00 0.00 0.00 0.02 0.09 0.05 0.01 0.01 0.01 0.00 0.00 0.00
0.00 0.00 0.00 0.00 0.01 0.00 0.01 0.01 0.03 0.02 0.00 0.02 0.08 0.09 0.07 0.02 0.02 0.02 0.01 0.00 0.00 0.01 0.00 0.00 0.01 0.00 0.00 0.01 0.01 0.00 0.00 0.00 0.00 0.00 0.01 0.08 0.12 0.04 0.02 0.04 0.04 0.02 0.01
0.00 0.00 0.00 0.00 0.01 0.00 0.00 0.01 0.04 0.06 0.03 0.05 0.08 0.08 0.07 0.05 0.08 0.06 0.02 0.01 0.01 0.02 0.01 0.00 0.01 0.00 0.00 0.01 0.01 0.01 0.01 0.01 0.01 0.01 0.02 0.03 0.11 0.11 0.09 0.17 0.21 0.16 0.08
0.00 0.00 0.00 0.00 0.00 0.00 0.00 0.00 0.01 0.04 0.05 0.07 0.08 0.06 0.04 0.03 0.03 0.03 0.02 0.01 0.01 0.01 0.01 0.01 0.01 0.01 0.01 0.01 0.01 0.01 0.01 0.01 0.01 0.02 0.02 0.04 0.10 0.10 0.15 0.33 0.45 0.41 0.31
0.00 0.00 0.00 0.01 0.00 0.00 0.00 0.00 0.00 0.00 0.01 0.01 0.02 0.02 0.01 0.01 0.02 0.03 0.03 0.02 0.02 0.02 0.02 0.02 0.01 0.02 0.03 0.02 0.02 0.03 0.03 0.01 0.01 0.01 0.04 0.06 0.06 0.07 0.23 0.40 0.54 0.57 0.54
0.00 0.00 0.00 0.00 0.00 0.00 0.00 0.00 0.00 0.00 0.00 0.00 0.01 0.01 0.01 0.01 0.02 0.03 0.05 0.05 0.05 0.05 0.05 0.05 0.03 0.03 0.03 0.03 0.03 0.04 0.03 0.03 0.03 0.03 0.04 0.08 0.09 0.20 0.46 0.54 0.57 0.63 0.65
0.00 0.00 0.00 0.01 0.00 0.00 0.00 0.00 0.00 0.00 0.00 0.01 0.01 0.01 0.01 0.01 0.02 0.05 0.06 0.06 0.08 0.11 0.11 0.07 0.04 0.04 0.04 0.03 0.02 0.03 0.04 0.03 0.02 0.03 0.06 0.06 0.10 0.29 0.53 0.62 0.65 0.68 0.69
0.00 0.00 0.00 0.01 0.01 0.00 0.00 0.00 0.00 0.01 0.01 0.01 0.02 0.01 0.02 0.02 0.05 0.12 0.13 0.15 0.13 0.12 0.09 0.07 0.05 0.05 0.05 0.03 0.06 0.10 0.06 0.02 0.02 0.02 0.05 0.06 0.13 0.29 0.45 0.53 0.59 0.66 0.66
0.00 0.00 0.01 0.01 0.01 0.00 0.00 0.01 0.01 0.02 0.03 0.03 0.05 0.11 0.13 0.19 0.16 0.06 0.11 0.17 0.19 0.20 0.16 0.15 0.16 0.12 0.13 0.14 0.40 0.49 0.12 0.08 0.05 0.05 0.09 0.13 0.21 0.35 0.49 0.51 0.52 0.57 0.57
0.00 0.00 0.00 0.01 0.01 0.01 0.00 0.01 0.01 0.01 0.06 0.05 0.06 0.13 0.18 0.17 0.09 0.03 0.04 0.10 0.19 0.23 0.20 0.30 0.37 0.29 0.33 0.42 0.40 0.41 0.17 0.14 0.15 0.11 0.12 0.21 0.32 0.46 0.68 0.63 0.51 0.48 0.47
0.00 0.00 0.01 0.00 0.01 0.01 0.01 0.01 0.01 0.01 0.02 0.03 0.06 0.05 0.11 0.13 0.07 0.04 0.05 0.06 0.14 0.20 0.31 0.36 0.47 0.43 0.40 0.35 0.34 0.29 0.24 0.28 0.21 0.23 0.22 0.21 0.25 0.34 0.61 0.61 0.46 0.43 0.40
0.01 0.01 0.02 0.02 0.02 0.03 0.03 0.02 0.01 0.01 0.02 0.02 0.04 0.04 0.06 0.11 0.10 0.12 0.12 0.12 0.10 0.17 0.26 0.34 0.37 0.53 0.58 0.46 0.34 0.26 0.26 0.33 0.32 0.35 0.28 0.20 0.17 0.20 0.37 0.47 0.43 0.41 0.38
0.02 0.03 0.05 0.07 0.10 0.10 0.09 0.07 0.06 0.05 0.06 0.05 0.07 0.10 0.11 0.15 0.21 0.24 0.24 0.28 0.27 0.33 0.37 0.47 0.61 0.81 0.78 0.76 0.57 0.42 0.37 0.34 0.31 0.37 0.32 0.28 0.20 0.16 0.20 0.32 0.38 0.38 0.36
0.04 0.07 0.11 0.18 0.22 0.21 0.19 0.17 0.16 0.16 0.17 0.16 0.19 0.22 0.25 0.31 0.38 0.40 0.36 0.38 0.52 0.64 0.69 0.71 0.87 1.04 0.87 0.91 0.72 0.64 0.53 0.45 0.36 0.33 0.32 0.28 0.24 0.19 0.15 0.18 0.25 0.29 0.33
0.08 0.11 0.22 0.32 0.35 0.33 0.34 0.36 0.32 0.30 0.29 0.27 0.29 0.31 0.36 0.44 0.51 0.62 0.54 0.55 0.91 1.00 1.01 1.11 1.25 1.24 1.13 1.11 0.95 0.77 0.59 0.51 0.41 0.33 0.27 0.26 0.24 0.16 0.13 0.14 0.17 0.20 0.27
0.15 0.23 0.37 0.47 0.47 0.47 0.50 0.51 0.46 0.38 0.32 0.32 0.36 0.39 0.46 0.56 0.66 0.84 0.77 0.92 1.23 1.26 1.22 1.24 1.47 1.42 1.25 1.22 1.14 0.88 0.59 0.47 0.34 0.29 0.25 0.20 0.20 0.19 0.15 0.15 0.13 0.15 0.25
0.29 0.36 0.45 0.57 0.64 0.72 0.77 0.67 0.50 0.37 0.34 0.38 0.41 0.42 0.51 0.63 0.81 1.09 1.00 1.08 1.31 1.40 1.36 1.35 1.32 1.36 1.21 1.22 1.17 0.90 0.59 0.39 0.33 0.27 0.22 0.17 0.13 0.11 0.11 0.12 0.16 0.14 0.22
0.39 0.40 0.50 0.64 0.73 0.73 0.72 0.65 0.62 0.56 0.57 0.51 0.53 0.56 0.59 0.63 0.82 1.13 1.10 1.20 1.31 1.27 1.25 1.34 1.34 1.23 1.01 1.18 1.21 0.87 0.52 0.38 0.34 0.22 0.18 0.14 0.13 0.09 0.08 0.11 0.17 0.21 0.26
0.43 0.50 0.52 0.64 0.77 0.76 0.81 0.87 0.95 1.02 0.86 0.72 0.78 0.84 0.88 0.97 1.01 1.10 1.15 1.17 1.23 1.26 1.15 1.11 1.19 1.08 0.89 1.05 1.13 1.05 0.58 0.38 0.31 0.24 0.24 0.28 0.25 0.20 0.17 0.18 0.19 0.27 0.31
0.44 0.48 0.52 0.62 0.75 0.79 0.93 1.11 1.21 1.31 1.17 1.19 1.30 1.36 1.35 1.38 1.35 1.33 1.25 1.14 1.02 1.01 0.92 0.93 1.03 1.04 0.92 0.92 1.08 1.20 0.87 0.57 0.49 0.35 0.35 0.35 0.35 0.34 0.31 0.31 0.29 0.34 0.35
0.62 0.69 0.77 0.82 0.89 1.00 1.15 1.33 1.42 1.44 1.45 1.61 1.81 1.72 1.49 1.34 1.19 1.05 0.94 0.91 0.85 0.84 0.75 0.73 0.80 0.81 0.79 0.77 0.85 0.97 1.05 1.04 0.91 0.49 0.31 0.27 0.32 0.37 0.40 0.35 0.29 0.32 0.38
0.78 0.87 0.99 1.01 1.05 1.10 1.17 1.26 1.36 1.41 1.42 1.43 1.40 1.29 1.14 0.99 0.85 0.73 0.66 0.65 0.62 0.62 0.56 0.55 0.55 0.55 0.58 0.61 0.70 0.81 0.92 1.01 1.04 0.88 0.52 0.46 0.48 0.45 0.45 0.38 0.35 0.37 0.40
0.82 0.79 0.77 0.78 0.83 0.89 0.93 0.98 1.02 1.00 0.98 0.92 0.83 0.76 0.69 0.62 0.50 0.40 0.37 0.40 0.46 0.52 0.48 0.45 0.44 0.45 0.50 0.58 0.65 0.71 0.79 0.79 0.85 0.94 0.74 0.61 0.54 0.47 0.49 0.52 0.50 0.52 0.48